This demonstration page uses our WeatherBlox Daily Observations layout. Learn more.

Left ArrowRight Arrow

Hourly Observations for April 12, 2021

Temp ( °F °C ) Dew Point ( °F °C ) Humidity (%) Winds ( mph kmh ) Pressure ( in mb ) Visibility ( mi km ) Precip ( " mm )
12:56 am 00:56 Clear 41 5 29 -1.7 62 62 N 21 33 29.99 1016 10 16 0.00 0.00
1:56 am 01:56 Clear 40 4.4 29 -1.7 65 65 NNW 12 19 30.01 1016 10 16 0.00 0.00
2:56 am 02:56 Clear 39 3.9 30 -1.1 70 70 NNW 13 20 30.01 1016 10 16 0.00 0.00
3:56 am 03:56 Mostly Cloudy 39 3.9 30 -1.1 70 70 NNW 16 26 30.01 1016 10 16 0.00 0.00
4:56 am 04:56 Partly Cloudy 38 3.3 28 -2.2 68 68 NNW 14 22 30.04 1017 10 16 0.00 0.00
5:56 am 05:56 Mostly Cloudy 37 2.8 28 -2.2 70 70 NW 8 13 30.05 1018 10 16 0.00 0.00
6:56 am 06:56 Cloudy 37 2.8 25 -3.9 62 62 NNW 13 20 30.07 1018 10 16 0.00 0.00
7:56 am 07:56 Mostly Sunny 37 2.8 24 -4.4 59 59 NNW 12 19 30.09 1019 10 16 0.00 0.00
8:56 am 08:56 Sunny 39 3.9 23 -5 53 53 NNW 17 28 30.10 1019 8 13 0.00 0.00
9:56 am 09:56 Sunny 41 5 23 -5 49 49 NW 15 24 30.12 1020 10 16 0.00 0.00
10:56 am 10:56 Sunny 44 6.7 20 -6.7 38 38 N 16 26 30.12 1020 10 16 0.00 0.00
11:56 am 11:56 Sunny 47 8.3 22 -5.6 37 37 NNW 17 28 30.10 1019 10 16 0.00 0.00
12:56 pm 12:56 Sunny 50 10 22 -5.6 33 33 NW 17 28 30.09 1019 10 16 0.00 0.00
1:56 pm 13:56 Sunny 52 11.1 23 -5 32 32 NW 12 19 30.08 1019 10 16 0.00 0.00
2:27 pm 14:27 Hazy 52 11 21 -6 30 30 W 14 22 30.06 1018 2 3 0.00 0.00
2:36 pm 14:36 Hazy 54 12 21 -6 28 28 WNW 14 22 30.05 1018 5 8 0.00 0.00
2:56 pm 14:56 Sunny 54 12.2 21 -6.1 28 28 NNW 12 19 30.06 1018 10 16 0.00 0.00
3:56 pm 15:56 Hazy 56 13.3 20 -6.7 24 24 W 13 20 30.05 1018 6 10 0.00 0.00
4:56 pm 16:56 Hazy 58 14.4 20 -6.7 23 23 WNW 15 24 30.03 1017 5 8 0.00 0.00
5:56 pm 17:56 Sunny 57 13.9 19 -7.2 23 23 N 17 28 30.05 1018 9 14 0.00 0.00
6:56 pm 18:56 Sunny 54 12.2 19 -7.2 25 25 N 18 30 30.07 1018 10 16 0.00 0.00
7:56 pm 19:56 Sunny 51 10.6 18 -7.8 27 27 N 12 19 30.10 1019 10 16 0.00 0.00
8:56 pm 20:56 Clear 43 6.1 23 -5 45 45 NNE 10 17 30.13 1020 10 16 0.00 0.00
9:56 pm 21:56 Clear 39 3.9 23 -5 53 53 N 10 17 30.17 1022 10 16 0.00 0.00
10:56 pm 22:56 Clear 41 5 22 -5.6 47 47 N 14 22 30.20 1023 10 16 0.00 0.00
11:56 pm 23:56 Clear 38 3.3 22 -5.6 52 52 N 10 17 30.23 1024 10 16 0.00 0.00

Powered by AerisWeather